Change the Weather History Date:

Monday, April 22, 2013

  Actual Average Record
Temperature  
Mean Temperature 53 °F 52 °F  
Max Temperature 56 °F 63 °F 86 °F (2012)
Min Temperature 49 °F 41 °F 26 °F (1963)
Degree Days  
Heating Degree Days 12 13  
Month to date heating degree days 368 343  
Since 1 July heating degree days 5226 5261  
Cooling Degree Days 0 0  
Month to date cooling degree days 0 0  
Year to date cooling degree days 0 0  
Growing Degree Days 0 (Base 50)    
Moisture  
Dew Point 29 °F    
Average Humidity 42    
Maximum Humidity 59    
Minimum Humidity 24    
Precipitation  
Precipitation 0.00 in 0.07 in 1.00 in (1957)
Month to date precipitation 1.96 1.45  
Year to date precipitation 4.87 5.74  
Snow  
Snow 0.00 in 0.10 in 1.80 in (1970)
Month to date snowfall T 3.4  
Since 1 July snowfall 69.8 55.3  
Snow Depth 0.00 in    
Sea Level Pressure  
Sea Level Pressure 29.99 in    
Wind  
Wind Speed 10 mph (NNW)    
Max Wind Speed 22 mph    
Max Gust Speed 28 mph    
Visibility 10 miles    
Events      
T = Trace of Precipitation, MM = Missing Value Source: NWS Daily Summary

Daily Weather History Graph

Daily Weather History Graph

Search for Another Location

Airport or City:

Trip Planner

Search our weather history database for the weather conditions in past years. The results will help you decide how hot, cold, wet, or windy it might be!

Date:

Astronomy

Apr. 22, 2013 Rise Set
Actual Time 6:38 AM MDT 8:15 PM MDT
Civil Twilight 6:09 AM MDT 8:44 PM MDT
Nautical Twilight 5:34 AM MDT 9:19 PM MDT
Astronomical Twilight 4:57 AM MDT 9:56 PM MDT
Moon 5:07 PM MDT (4/22) 4:36 AM MDT (4/22)
Length of Visible Light 14h 34m
Length of Day
13h 36m
Waxing Gibbous, 88% of the Moon is Illuminated
Apr 22
Waxing Gibbous
Apr 25
Full
May 2
Last Quarter
May 9
New
May 17
First Quarter

Hourly Weather History & Observations

Time (MDT) Temp. Windchill Dew Point Humidity Pressure Visibility Wind Dir Wind Speed Gust Speed Precip Events Conditions
12:53 AM 55.0 °F - 37.9 °F 53% 29.90 in 10.0 mi SW 3.5 mph - N/A   Mostly Cloudy
1:53 AM 52.0 °F - 37.9 °F 59% 29.90 in 10.0 mi NW 4.6 mph - N/A   Scattered Clouds
2:53 AM 48.9 °F - 37.0 °F 64% 29.90 in 10.0 mi Calm Calm - N/A   Partly Cloudy
3:53 AM 48.9 °F - 35.1 °F 59% 29.89 in 10.0 mi WNW 3.5 mph - N/A   Partly Cloudy
4:53 AM 50.0 °F - 37.0 °F 61% 29.90 in 10.0 mi North 5.8 mph - N/A   Mostly Cloudy
5:53 AM 50.0 °F - 35.1 °F 57% 29.91 in 10.0 mi West 6.9 mph - N/A   Mostly Cloudy
6:53 AM 48.9 °F - 34.0 °F 56% 29.93 in 10.0 mi NW 4.6 mph - N/A   Mostly Cloudy
7:53 AM 50.0 °F - 33.1 °F 52% 29.96 in 10.0 mi NNW 9.2 mph - N/A   Mostly Cloudy
8:53 AM 50.0 °F - 32.0 °F 50% 29.98 in 10.0 mi North 10.4 mph - N/A   Mostly Cloudy
9:53 AM 48.9 °F - 33.1 °F 54% 30.00 in 10.0 mi North 9.2 mph - N/A   Mostly Cloudy
10:53 AM 50.0 °F - 26.1 °F 39% 30.03 in 10.0 mi NNW 16.1 mph 21.9 mph N/A   Mostly Cloudy
11:53 AM 51.1 °F - 28.0 °F 41% 30.03 in 10.0 mi NNW 13.8 mph - N/A   Mostly Cloudy
12:53 PM 51.1 °F - 27.0 °F 39% 30.04 in 10.0 mi NW 11.5 mph - N/A   Mostly Cloudy
1:53 PM 52.0 °F - 24.1 °F 34% 30.02 in 10.0 mi NNW 13.8 mph - N/A   Mostly Cloudy
2:53 PM 54.0 °F - 23.0 °F 30% 30.01 in 10.0 mi NW 11.5 mph 23.0 mph N/A   Mostly Cloudy
3:53 PM 55.0 °F - 19.9 °F 25% 30.00 in 10.0 mi NNW 12.7 mph 23.0 mph N/A   Scattered Clouds
4:53 PM 54.0 °F - 18.0 °F 24% 29.99 in 10.0 mi West 12.7 mph 21.9 mph N/A   Scattered Clouds
5:53 PM 53.1 °F - 21.9 °F 30% 30.00 in 10.0 mi North 12.7 mph 20.7 mph N/A   Partly Cloudy
6:53 PM 51.1 °F - 24.1 °F 35% 30.02 in 10.0 mi NNW 21.9 mph 28.8 mph N/A   Partly Cloudy
7:53 PM 46.9 °F - 23.0 °F 39% 30.04 in 10.0 mi North 12.7 mph - N/A   Partly Cloudy
8:53 PM 45.0 °F 38.9 °F 26.1 °F 48% 30.06 in 10.0 mi North 12.7 mph - N/A   Partly Cloudy
9:53 PM 42.1 °F 38.4 °F 28.0 °F 58% 30.09 in 10.0 mi North 5.8 mph - N/A   Partly Cloudy
10:53 PM 42.1 °F 36.6 °F 28.9 °F 60% 30.10 in 10.0 mi NNW 9.2 mph - N/A   Partly Cloudy
11:53 PM 39.9 °F 32.9 °F 25.0 °F 55% 30.10 in 10.0 mi North 11.5 mph - N/A   Partly Cloudy